#timestamp,LO_Frequency,Hit 
1498503615.7,286047343.1,N
1498503635.5,286047347.9,N
1498503655.3,286047351.3,N
1498503675.2,286047349.2,N
1498503695.9,286047349.3,N
1498503715.7,286047350.0,N
1498503735.6,286047348.7,N
1498503755.4,286047353.2,N
1498503775.2,286047354.2,N
1498503795.0,286047357.7,N
1498503796.0,286047357.7,N
1498503815.8,286047355.7,N
1498503835.6,286047354.0,N
1498503855.4,286047354.4,N
1498503875.3,286047350.6,N
1498503895.1,286047350.1,N
1498503915.8,286047351.0,N
1498503935.7,286047351.2,N
1498503955.5,286047351.7,N
1498503975.3,286047355.1,N
1498503995.2,286047355.7,N
1498504015.9,286047356.3,N
1498504035.7,286047355.0,N
1498504055.6,286047355.8,N
1498504075.4,286047355.5,N
1498504095.2,286047357.2,N
1498504115.0,286047359.9,N
1498504116.0,286047359.9,N
1498504135.8,286047358.8,N
1498504155.6,286047362.4,N
1498504175.4,286047365.2,N
1498504195.3,286047370.5,N
1498504215.1,286047374.0,N
1498504235.8,286047372.7,N
1498504255.7,286047371.7,N
1498504275.5,286047370.1,N
1498504295.3,286047365.0,N
1498504315.2,286047361.9,N
1498504335.9,286047363.9,N
1498504355.7,286047362.1,N
1498504375.6,286047360.4,N
1498504395.4,286047358.6,N
1498504415.2,286047361.6,N
1498504435.0,286047364.7,N
1498504435.9,286047364.7,N
1498504455.8,286047368.6,N
1498504475.6,286047370.9,N
1498504495.4,286047374.9,N
1498504515.3,286047376.0,N
1498504535.1,286047381.5,N
1498504555.8,286047382.2,N
1498504575.7,286047385.6,N
1498504595.5,286047385.9,N
1498504615.3,286047385.2,N
1498504635.2,286047379.7,N
1498504655.9,286047377.9,N
1498504675.7,286047377.7,N
1498504695.6,286047375.9,N
1498504715.4,286047380.2,N
1498504735.2,286047378.2,N
1498504755.0,286047376.1,N
1498504756.0,286047376.1,N
1498504775.8,286047374.3,N
1498504795.6,286047375.4,N
1498504815.4,286047369.7,N
1498504835.3,286047372.2,N
1498504855.1,286047373.5,N
1498504875.8,286047378.7,N
1498504895.7,286047379.9,N
1498504915.5,286047380.3,N
1498504935.3,286047377.8,N
1498504955.2,286047378.7,N
1498504975.9,286047377.1,N
1498504995.7,286047372.5,N
1498505015.6,286047376.9,N
1498505035.4,286047371.6,N
1498505055.2,286047368.8,N
1498505075.0,286047370.4,N
1498505076.0,286047370.4,N
1498505095.8,286047372.1,N
1498505115.6,286047371.0,N
1498505135.4,286047372.4,N
1498505155.3,286047368.1,N
1498505175.1,286047366.9,N
1498505195.8,286047368.0,N
1498505215.7,286047368.8,N
1498505235.5,286047369.3,N
1498505255.3,286047370.5,N
1498505275.2,286047367.5,N
1498505295.9,286047369.9,N
1498505315.7,286047373.8,N
1498505335.6,286047375.7,N
1498505355.4,286047381.6,N
1498505375.2,286047385.2,N
1498505395.0,286047389.0,N
1498505395.9,286047389.0,N
1498505415.8,286047388.0,N
1498505435.6,286047384.3,N
1498505455.4,286047382.6,N
1498505475.3,286047383.0,N
1498505495.1,286047381.5,N
1498505515.8,286047385.0,N
1498505535.7,286047380.9,N
1498505555.5,286047384.4,N
1498505575.3,286047381.7,N
1498505595.2,286047385.8,N
1498505615.9,286047384.0,N
1498505635.7,286047385.8,N
1498505655.6,286047386.5,N
1498505675.4,286047385.8,N
1498505695.2,286047393.9,Y
1498505715.1,286047058.3,N
1498505716.0,286047058.3,N
1498505735.8,286047059.5,N
1498505755.6,286047061.2,N
1498505775.5,286047062.4,N
1498505795.3,286047063.0,N
1498505815.1,286047060.5,N
1498505835.8,286047061.4,N
1498505855.7,286047061.4,N
1498505875.5,286047060.5,N
1498505895.3,286047063.3,N
1498505915.2,286047062.5,N
1498505935.9,286047063.8,N
1498505955.7,286047066.5,N
1498505975.6,286047063.3,N
1498505995.4,286047065.1,N
1498506015.2,286047063.7,N
1498506035.1,286047067.9,N
1498506036.0,286047067.9,N
1498506055.8,286047068.3,N
1498506075.6,286047076.0,N
1498506095.4,286047074.4,N
1498506115.3,286047076.4,N
1498506135.1,286047077.1,N
1498506155.8,286047087.5,N
1498506175.7,286047091.6,N
1498506195.5,286047097.6,N
1498506215.3,286047093.5,N
1498506235.2,286047103.3,N
1498506255.9,286047107.3,N
1498506275.7,286047108.4,N
1498506295.6,286047104.5,N
1498506315.4,286047106.2,N
1498506335.2,286047107.2,N
1498506355.1,286047110.2,N
1498506356.0,286047110.2,N
1498506375.8,286047120.5,N
1498506395.6,286047121.2,N
1498506415.4,286047116.4,N
1498506435.3,286047111.0,N
1498506455.1,286047106.0,N
1498506475.8,286047100.7,N
1498506495.7,286047098.9,N
1498506515.5,286047100.0,N
1498506535.3,286047096.2,N
1498506555.2,286047095.1,N
1498506575.9,286047095.6,N
1498506595.7,286047093.9,N
1498506615.6,286047089.9,N
1498506635.4,286047088.1,N
1498506655.2,286047086.9,N
1498506675.0,286047087.2,N
1498506676.0,286047087.2,N
1498506695.8,286047085.3,N
1498506715.6,286047083.2,N
1498506735.4,286047082.1,N
1498506755.3,286047083.1,N
1498506775.1,286047080.4,N
1498506795.8,286047080.9,N
1498506815.7,286047079.0,N
1498506835.5,286047076.9,N
1498506855.3,286047077.0,N
1498506875.2,286047077.5,N
1498506895.9,286047075.4,N
1498506915.7,286047074.5,N
1498506935.6,286047072.5,N
1498506955.4,286047072.5,N
1498506975.2,286047068.7,N
1498506995.0,286047065.3,N
1498506995.9,286047065.3,N
1498507015.8,286047065.9,N
1498507035.6,286047066.7,N
1498507055.4,286047064.5,N
1498507075.3,286047062.7,N
1498507095.1,286047062.8,N
1498507115.8,286047063.3,N
1498507135.7,286047060.9,N
1498507155.5,286047061.1,N
1498507175.3,286047059.1,N
1498507195.2,286047059.6,N
